DL1MX-13 Weather Reports


Display with metric or nautical units.
time (UTC)temp
F
wind
direction
speed
MPH
gust
MPH
rain 1hr
in
rain 24hr
in
rain mn
in
humidity
%
barometer
mb
20221207074423 32 245 0.0 0.0 0.00 0.00 0.00 95 1012.1
20221207073923 32 245 0.0 0.0 0.00 0.00 0.00 95 1012.2
20221207073423 32 235 0.0 0.0 0.00 0.00 0.00 95 1012.1
20221207072923 32 240 0.0 0.0 0.00 0.00 0.00 95 1012.2
20221207072423 32 242 0.0 0.0 0.00 0.00 0.00 95 1012.2
20221207071922 32 245 0.0 0.0 0.00 0.00 0.00 95 1012.1
20221207071422 32 247 0.0 0.0 0.00 0.00 0.00 95 1012.0
20221207070922 32 237 0.0 0.0 0.00 0.00 0.00 95 1012.1
20221207070422 32 230 0.0 0.0 0.00 0.00 0.00 95 1012.1
20221207065922 32 225 0.0 0.0 0.00 0.00 0.00 95 1012.1
20221207065422 32 230 0.0 0.0 0.00 0.00 0.00 95 1012.0
20221207064922 32 230 0.0 0.0 0.00 0.00 0.00 95 1012.1
20221207064422 32 207 0.0 0.0 0.00 0.00 0.00 95 1012.0
20221207063921 32 205 0.0 0.0 0.00 0.00 0.00 95 1012.0
20221207063421 32 227 0.0 0.0 0.00 0.00 0.00 95 1012.0
20221207062921 32 232 0.0 0.0 0.00 0.00 0.00 95 1012.1
20221207062421 32 232 0.0 0.0 0.00 0.00 0.00 95 1012.1
20221207061921 32 240 0.0 0.0 0.00 0.00 0.00 95 1012.1
20221207061421 32 245 0.0 0.0 0.00 0.00 0.00 95 1012.1
20221207060921 32 237 0.0 0.0 0.00 0.00 0.00 95 1012.1
20221207060421 32 235 0.0 0.0 0.00 0.00 0.00 95 1012.1
20221207055920 32 242 0.0 0.0 0.00 0.00 0.00 95 1012.2
20221207055420 32 237 0.0 0.0 0.00 0.00 0.00 95 1012.1
20221207054920 32 237 0.0 0.0 0.00 0.00 0.00 95 1012.2
20221207054420 32 240 0.0 0.0 0.00 0.00 0.00 95 1012.2
20221207053920 32 240 0.0 0.0 0.00 0.00 0.00 95 1012.2
20221207053420 32 247 0.0 0.0 0.00 0.00 0.00 95 1012.3
20221207052920 32 245 0.0 0.0 0.00 0.00 0.00 95 1012.3
20221207052420 32 250 0.0 0.0 0.00 0.00 0.00 95 1012.2
20221207051919 32 247 0.0 0.0 0.00 0.00 0.00 95 1012.3
20221207051419 32 250 0.0 0.0 0.00 0.00 0.00 95 1012.3
20221207050919 32 250 0.0 0.0 0.00 0.00 0.00 95 1012.2
20221207050419 32 245 0.0 0.0 0.00 0.00 0.00 95 1012.3
20221207045919 32 242 0.0 0.0 0.00 0.00 0.00 95 1012.3
20221207045419 32 237 0.0 0.0 0.00 0.00 0.00 95 1012.2
20221207044919 32 240 0.0 0.0 0.00 0.00 0.00 95 1012.3
20221207044419 32 235 0.0 0.0 0.00 0.00 0.00 95 1012.3
20221207043919 32 225 0.0 0.0 0.00 0.00 0.00 95 1012.4
20221207043418 32 245 0.0 0.0 0.00 0.00 0.00 95 1012.4
20221207042918 32 230 0.0 0.0 0.00 0.00 0.00 95 1012.4
20221207042418 32 230 0.0 0.0 0.00 0.00 0.00 95 1012.4
20221207041918 32 240 0.0 0.0 0.00 0.00 0.00 95 1012.4
20221207041418 32 242 0.0 0.0 0.00 0.00 0.00 95 1012.3
20221207040918 32 240 0.0 0.0 0.00 0.00 0.00 95 1012.5
20221207040418 32 242 0.0 0.0 0.00 0.00 0.00 95 1012.4
20221207035917 32 237 0.0 0.0 0.00 0.00 0.00 95 1012.4
20221207035417 32 235 0.0 0.0 0.00 0.00 0.00 95 1012.4
20221207034917 31 235 0.0 0.0 0.00 0.00 0.00 95 1012.4
20221207034417 31 225 0.0 0.0 0.00 0.00 0.00 95 1012.3
20221207033917 31 220 0.0 0.0 0.00 0.00 0.00 95 1012.4
20221207033417 31 237 0.0 0.0 0.00 0.00 0.00 95 1012.5
20221207032917 31 220 0.0 0.0 0.00 0.00 0.00 95 1012.6
20221207032417 31 232 0.0 0.0 0.00 0.00 0.00 95 1012.5
20221207031916 31 227 0.0 0.0 0.00 0.00 0.00 95 1012.5
20221207031416 31 220 0.0 0.0 0.00 0.00 0.00 95 1012.4
20221207030916 31 217 0.0 0.0 0.00 0.00 0.00 95 1012.5
20221207030416 31 215 0.0 0.0 0.00 0.00 0.00 95 1012.4
20221207025916 31 210 0.0 0.0 0.00 0.00 0.00 95 1012.6
20221207025416 31 220 0.0 0.0 0.00 0.00 0.00 95 1012.6
20221207024916 31 202 0.0 0.0 0.00 0.00 0.00 95 1012.6
20221207024416 31 207 0.0 0.0 0.00 0.00 0.00 95 1012.8
20221207023915 31 215 0.0 0.0 0.00 0.00 0.00 95 1012.7
20221207023415 31 205 0.0 0.0 0.00 0.00 0.00 95 1012.8
20221207022915 31 210 0.0 0.0 0.00 0.00 0.00 95 1012.8
20221207022415 31 205 0.0 0.0 0.00 0.00 0.00 95 1012.9
20221207021915 31 210 0.0 0.0 0.00 0.00 0.00 95 1012.9
20221207021415 31 197 0.0 0.0 0.00 0.00 0.00 95 1012.9
20221207020915 31 207 0.0 0.0 0.00 0.00 0.00 95 1013.0
20221207020414 31 205 0.0 0.0 0.00 0.00 0.00 95 1013.1
20221207015914 31 197 0.0 0.0 0.00 0.00 0.00 95 1012.9
20221207015414 31 200 0.0 0.0 0.00 0.00 0.00 95 1013.1
20221207014914 31 205 0.0 0.0 0.00 0.00 0.00 95 1013.1
20221207014414 31 210 0.0 0.0 0.00 0.00 0.00 95 1013.1
20221207013914 31 212 0.0 0.0 0.00 0.00 0.00 95 1013.1
20221207013414 31 220 0.0 0.0 0.00 0.00 0.00 95 1013.3
20221207012914 31 210 0.0 0.0 0.00 0.00 0.00 95 1013.1
20221207012413 31 205 0.0 0.0 0.00 0.00 0.00 95 1013.2
20221207011913 31 202 0.0 0.0 0.00 0.00 0.00 95 1013.1
20221207011413 31 212 0.0 0.0 0.00 0.00 0.00 95 1013.2
20221207010913 31 205 0.0 0.0 0.00 0.00 0.00 95 1013.2
20221207010413 31 200 0.0 0.0 0.00 0.00 0.00 95 1013.2
20221207005913 31 210 0.0 0.0 0.00 0.00 0.00 95 1013.4
20221207005413 31 205 0.0 0.0 0.00 0.00 0.00 95 1013.4
20221207004913 31 207 0.0 0.0 0.00 0.00 0.00 95 1013.4
20221207004413 31 210 0.0 0.0 0.00 0.00 0.00 95 1013.4
20221207003912 31 212 0.0 0.0 0.00 0.00 0.00 95 1013.4
20221207003412 31 212 0.0 0.0 0.00 0.00 0.00 95 1013.5
20221207002912 31 210 0.0 0.0 0.00 0.00 0.00 95 1013.5
20221207002412 31 217 0.0 0.0 0.00 0.00 0.00 95 1013.6
20221207001912 31 210 0.0 0.0 0.00 0.00 0.00 95 1013.6
20221207001412 31 212 0.0 0.0 0.00 0.00 0.00 95 1013.8
20221207000912 31 210 0.0 0.0 0.00 0.00 0.00 95 1013.8
20221207000413 31 200 0.0 0.0 0.00 0.00 0.00 95 1013.8
20221206235911 31 202 0.0 0.0 0.00 0.00 0.00 95 1013.8
20221206235411 31 200 0.0 0.0 0.00 0.00 0.00 95 1013.9
20221206234911 31 195 0.0 0.0 0.00 0.00 0.00 95 1013.9
20221206234411 31 190 0.0 0.0 0.00 0.00 0.00 95 1014.0
20221206233911 31 190 0.0 0.0 0.00 0.00 0.00 95 1014.0
20221206233411 31 187 0.0 0.0 0.00 0.00 0.00 95 1013.9
20221206232911 31 150 0.0 0.0 0.00 0.00 0.00 95 1014.1
20221206232410 31 175 0.0 0.0 0.00 0.00 0.00 95 1014.1
20221206231910 31 207 0.0 0.0 0.00 0.00 0.00 95 1014.1
20221206231410 31 207 0.0 0.0 0.00 0.00 0.00 95 1014.2
20221206230910 31 190 0.0 0.0 0.00 0.00 0.00 95 1014.1
20221206230410 31 177 0.0 0.0 0.00 0.00 0.00 95 1014.3
20221206225910 31 190 0.0 0.0 0.00 0.00 0.00 95 1014.3
20221206225410 31 197 0.0 0.0 0.00 0.00 0.00 95 1014.4
20221206224910 31 207 0.0 0.0 0.00 0.00 0.00 95 1014.5
20221206224409 31 207 0.0 0.0 0.00 0.00 0.00 95 1014.5
20221206223909 31 215 0.0 0.0 0.00 0.00 0.00 95 1014.6
20221206223409 31 220 0.0 0.0 0.00 0.00 0.00 95 1014.7
20221206222909 31 197 0.0 0.0 0.00 0.00 0.00 95 1014.7
20221206222409 31 220 0.0 0.0 0.00 0.00 0.00 95 1014.7
20221206221909 31 220 0.0 0.0 0.00 0.00 0.00 95 1014.7
20221206221409 31 212 0.0 0.0 0.00 0.00 0.00 95 1014.8
20221206220909 31 212 0.0 0.0 0.00 0.00 0.00 95 1014.7
20221206220409 31 212 0.0 0.0 0.00 0.00 0.00 95 1014.7
20221206215909 31 227 0.0 0.0 0.00 0.00 0.00 95 1014.7
20221206215408 31 232 0.0 0.0 0.00 0.00 0.00 95 1014.7
20221206214908 31 250 0.0 0.0 0.00 0.00 0.00 95 1014.7
20221206214408 31 240 0.0 0.0 0.00 0.00 0.00 95 1014.7
20221206213908 31 245 0.0 0.0 0.00 0.00 0.00 95 1014.7
20221206213408 31 247 0.0 0.0 0.00 0.00 0.00 95 1014.7
20221206212908 31 245 0.0 0.0 0.00 0.00 0.00 95 1014.7
20221206212408 31 245 0.0 0.0 0.00 0.00 0.00 95 1014.7
20221206211908 31 245 0.0 0.0 0.00 0.00 0.00 95 1014.8
20221206211407 31 255 0.0 0.0 0.00 0.00 0.00 95 1014.8
20221206210907 31 230 0.0 0.0 0.00 0.00 0.00 95 1014.8
20221206210407 31 242 0.0 0.0 0.00 0.00 0.00 95 1014.7
20221206205907 31 237 0.0 0.0 0.00 0.00 0.00 95 1014.7
20221206205407 31 235 0.0 0.0 0.00 0.00 0.00 95 1014.8
20221206204907 31 242 0.0 0.0 0.00 0.00 0.00 95 1014.7
20221206204407 31 237 0.0 0.0 0.00 0.00 0.00 95 1014.8
20221206203907 31 255 0.0 0.0 0.00 0.00 0.00 95 1014.9
20221206203406 31 247 0.0 0.0 0.00 0.00 0.00 95 1014.9
20221206202906 31 242 0.0 0.0 0.00 0.00 0.00 95 1015.0
20221206202406 31 237 0.0 0.0 0.00 0.00 0.00 95 1014.9
20221206201906 31 245 0.0 0.0 0.00 0.00 0.00 95 1014.9
20221206201406 31 240 0.0 0.0 0.00 0.00 0.00 95 1015.0
20221206200906 31 235 0.0 0.0 0.00 0.00 0.00 95 1015.0
20221206200406 31 290 0.0 0.0 0.00 0.00 0.00 95 1015.2
20221206195906 31 285 0.0 0.0 0.00 0.00 0.00 95 1015.2
20221206195405 31 295 0.0 0.0 0.00 0.00 0.00 95 1015.2
20221206194905 31 285 0.0 0.0 0.00 0.00 0.00 95 1015.2
20221206194405 31 270 0.0 0.0 0.00 0.00 0.00 95 1015.2
20221206193905 31 247 0.0 0.0 0.00 0.00 0.00 95 1015.3
20221206193405 31 252 0.0 0.0 0.00 0.00 0.00 95 1015.1
20221206192905 31 275 0.0 0.0 0.00 0.00 0.00 95 1015.2
20221206192405 31 270 0.0 0.0 0.00 0.00 0.00 95 1015.1
20221206191905 31 252 0.0 0.0 0.00 0.00 0.00 95 1015.1
20221206191404 31 252 0.0 0.0 0.00 0.00 0.00 95 1015.2
20221206190904 31 267 0.0 0.0 0.00 0.00 0.00 95 1015.2
20221206190404 31 247 0.0 0.0 0.00 0.00 0.00 95 1015.2
20221206185904 31 245 0.0 0.0 0.00 0.00 0.00 95 1015.2
20221206185404 31 262 0.0 0.0 0.00 0.00 0.00 95 1015.2
20221206184904 31 252 0.0 0.0 0.00 0.00 0.00 95 1015.3
20221206184404 31 237 0.0 0.0 0.00 0.00 0.00 95 1015.2
20221206183904 31 255 0.0 0.0 0.00 0.00 0.00 95 1015.2
20221206183403 31 250 0.0 0.0 0.00 0.00 0.00 95 1015.2
20221206182903 31 247 0.0 0.0 0.00 0.00 0.00 95 1015.2
20221206182403 31 247 0.0 0.0 0.00 0.00 0.00 95 1015.1
20221206181903 31 257 0.0 0.0 0.00 0.00 0.00 95 1015.1
20221206181403 31 250 0.0 0.0 0.00 0.00 0.00 95 1015.2
20221206180903 31 242 0.0 0.0 0.00 0.00 0.00 95 1015.0
20221206180403 31 247 0.0 0.0 0.00 0.00 0.00 95 1015.1
20221206175903 31 230 0.0 0.0 0.00 0.00 0.00 95 1015.0
20221206175402 31 227 0.0 0.0 0.00 0.00 0.00 95 1015.0
20221206174902 31 235 0.0 0.0 0.00 0.00 0.00 95 1015.0
20221206174402 31 230 0.0 0.0 0.00 0.00 0.00 95 1015.1
20221206173902 31 230 0.0 0.0 0.00 0.00 0.00 95 1015.0
20221206173402 31 245 0.0 0.0 0.00 0.00 0.00 95 1015.1
20221206172902 31 240 0.0 0.0 0.00 0.00 0.00 95 1015.0
20221206172402 31 232 0.0 0.0 0.00 0.00 0.00 95 1015.1
20221206171902 31 227 0.0 0.0 0.00 0.00 0.00 95 1015.1
20221206171401 31 262 0.0 0.0 0.00 0.00 0.00 95 1015.1
20221206170901 31 252 0.0 0.0 0.00 0.00 0.00 95 1015.2
20221206170401 31 255 0.0 0.0 0.00 0.00 0.00 95 1015.2
20221206165901 31 255 0.0 0.0 0.00 0.00 0.00 95 1015.1
20221206165401 31 245 0.0 0.0 0.00 0.00 0.00 95 1015.2
20221206164901 31 240 0.0 0.0 0.00 0.00 0.00 95 1015.2
20221206164401 31 242 0.0 0.0 0.00 0.00 0.00 95 1015.2
20221206163901 31 247 0.0 0.0 0.00 0.00 0.00 95 1015.2
20221206163400 31 245 0.0 0.0 0.00 0.00 0.00 95 1015.3
20221206162900 31 250 0.0 0.0 0.00 0.00 0.00 95 1015.3
20221206162400 31 250 0.0 0.0 0.00 0.00 0.00 95 1015.2
20221206161900 31 262 0.0 0.0 0.00 0.00 0.00 95 1015.3
20221206161400 31 265 0.0 0.0 0.00 0.00 0.00 95 1015.3
20221206160900 31 275 0.0 0.0 0.00 0.00 0.00 95 1015.3
20221206160400 31 260 0.0 0.0 0.00 0.00 0.00 95 1015.3
20221206155900 31 255 0.0 0.0 0.00 0.00 0.00 95 1015.3
20221206155359 31 267 0.0 0.0 0.00 0.00 0.00 95 1015.3
20221206154859 31 257 0.0 0.0 0.00 0.00 0.00 95 1015.2
20221206154359 31 247 0.0 0.0 0.00 0.00 0.00 95 1015.2
20221206153859 31 260 0.0 0.0 0.00 0.00 0.00 94 1015.3
20221206153359 31 265 0.0 0.0 0.00 0.00 0.00 94 1015.3
20221206152859 31 242 0.0 0.0 0.00 0.00 0.00 94 1015.2
20221206152359 31 242 0.0 0.0 0.00 0.00 0.00 95 1015.2
20221206151859 31 260 0.0 0.0 0.00 0.00 0.00 94 1015.2
20221206151359 31 250 0.0 0.0 0.00 0.00 0.00 94 1015.2
20221206150858 31 260 0.0 0.0 0.00 0.00 0.00 94 1015.2
20221206150358 31 312 0.0 0.0 0.00 0.00 0.00 94 1015.1
20221206145858 31 240 0.0 0.0 0.00 0.00 0.00 94 1015.2
20221206145358 31 275 0.0 0.0 0.00 0.00 0.00 94 1015.2
20221206144858 31 252 0.0 0.0 0.00 0.00 0.00 94 1015.1
20221206144358 31 250 0.0 0.0 0.00 0.00 0.00 94 1015.2
20221206143858 31 247 0.0 0.0 0.00 0.00 0.00 94 1015.2
20221206143358 31 265 0.0 0.0 0.00 0.00 0.00 94 1015.2
20221206142858 32 257 0.0 0.0 0.00 0.00 0.00 94 1015.3
20221206142357 32 245 0.0 0.0 0.00 0.00 0.00 94 1015.2
20221206141857 32 247 0.0 0.0 0.00 0.00 0.00 94 1015.3
20221206141357 32 245 0.0 0.0 0.00 0.00 0.00 94 1015.3
20221206140857 32 240 0.0 0.0 0.00 0.00 0.00 94 1015.2
20221206140357 32 245 0.0 0.0 0.00 0.00 0.00 94 1015.2
20221206135857 32 250 0.0 0.0 0.00 0.00 0.00 94 1015.1
20221206135357 32 245 0.0 0.0 0.00 0.00 0.00 94 1015.1
20221206134857 32 245 0.0 0.0 0.00 0.00 0.00 94 1015.1
20221206134356 32 245 0.0 0.0 0.00 0.00 0.00 94 1015.1
20221206133856 32 260 0.0 0.0 0.00 0.00 0.00 94 1015.1
20221206133356 32 250 0.0 0.0 0.00 0.00 0.00 94 1015.0
20221206132856 32 252 0.0 0.0 0.00 0.00 0.00 94 1015.0
20221206132356 32 260 0.0 0.0 0.00 0.00 0.00 94 1015.1
20221206131856 32 265 0.0 0.0 0.00 0.00 0.00 94 1015.1
20221206131356 32 255 0.0 0.0 0.00 0.00 0.00 94 1015.2
20221206130856 32 255 0.0 0.0 0.00 0.00 0.00 94 1015.2
20221206130355 32 257 0.0 0.0 0.00 0.00 0.00 94 1015.3
20221206125855 32 275 0.0 0.0 0.00 0.00 0.00 94 1015.3
20221206125355 32 267 0.0 0.0 0.00 0.00 0.00 94 1015.3
20221206124855 32 270 0.0 0.0 0.00 0.00 0.00 94 1015.2
20221206124355 32 282 0.0 0.0 0.00 0.00 0.00 94 1015.3
20221206123855 32 267 0.0 0.0 0.00 0.00 0.00 94 1015.3
20221206123355 32 302 0.0 0.0 0.00 0.00 0.00 94 1015.2
20221206122855 32 305 0.0 0.0 0.00 0.00 0.00 94 1015.2
20221206122354 32 275 0.0 0.0 0.00 0.00 0.00 94 1015.3
20221206121854 32 322 0.0 0.0 0.00 0.00 0.00 94 1015.3
20221206121354 32 305 0.0 0.0 0.00 0.00 0.00 94 1015.4
20221206120854 32 350 0.0 0.0 0.00 0.00 0.00 94 1015.2
20221206120354 32 315 0.0 0.0 0.00 0.00 0.00 94 1015.4
20221206115854 32 300 0.0 0.0 0.00 0.00 0.00 94 1015.4
20221206115354 32 310 0.0 0.0 0.00 0.00 0.00 94 1015.3
20221206114854 32 307 0.0 0.0 0.00 0.00 0.00 94 1015.3
20221206114353 32 295 0.0 0.0 0.00 0.00 0.00 94 1015.3
20221206113853 32 285 0.0 0.0 0.00 0.00 0.00 94 1015.4
20221206113353 32 285 0.0 0.0 0.00 0.00 0.00 94 1015.3
20221206112853 32 285 0.0 0.0 0.00 0.00 0.00 94 1015.4
20221206112353 31 285 0.0 0.0 0.00 0.00 0.00 94 1015.4
20221206111853 31 285 0.0 0.0 0.00 0.00 0.00 94 1015.5
20221206111353 31 285 0.0 0.0 0.00 0.00 0.00 94 1015.5
20221206110853 31 285 0.0 0.0 0.00 0.00 0.00 94 1015.5
20221206110353 31 285 0.0 0.0 0.00 0.00 0.00 94 1015.5
20221206105852 31 285 0.0 0.0 0.00 0.00 0.00 94 1015.6
20221206105352 31 285 0.0 0.0 0.00 0.00 0.00 94 1015.7
20221206104852 31 285 0.0 0.0 0.00 0.00 0.00 94 1015.7
20221206104352 31 285 0.0 0.0 0.00 0.00 0.00 94 1015.7
20221206103852 31 285 0.0 0.0 0.00 0.00 0.00 94 1015.8
20221206103352 31 285 0.0 0.0 0.00 0.00 0.00 94 1015.8
20221206102852 31 285 0.0 0.0 0.00 0.00 0.00 94 1015.9
20221206102352 31 285 0.0 0.0 0.00 0.00 0.00 94 1015.7
20221206101851 31 285 0.0 0.0 0.00 0.00 0.00 94 1015.8
20221206101351 31 285 0.0 0.0 0.00 0.00 0.00 94 1015.8
20221206100851 31 285 0.0 0.0 0.00 0.00 0.00 94 1015.9
20221206100351 30 280 0.0 0.0 0.00 0.00 0.00 94 1015.9
20221206095851 30 280 0.0 0.0 0.00 0.00 0.00 94 1015.8
20221206095351 30 245 0.0 0.0 0.00 0.00 0.00 94 1015.9
20221206094851 30 230 0.0 0.0 0.00 0.00 0.00 94 1015.9
20221206094351 30 227 0.0 0.0 0.00 0.00 0.00 94 1015.9
20221206093850 30 227 0.0 0.0 0.00 0.00 0.00 94 1016.0
20221206093350 30 227 0.0 0.0 0.00 0.00 0.00 94 1015.9
20221206092850 30 235 0.0 0.0 0.00 0.00 0.00 94 1016.0
20221206092350 30 272 0.0 0.0 0.00 0.00 0.00 94 1015.9
20221206091850 30 285 0.0 0.0 0.00 0.00 0.00 94 1015.8
20221206091350 30 285 0.0 0.0 0.00 0.00 0.00 94 1015.8
20221206090850 29 285 0.0 0.0 0.00 0.00 0.00 94 1015.8
20221206090350 29 285 0.0 0.0 0.00 0.00 0.00 94 1015.8
20221206085850 29 285 0.0 0.0 0.00 0.00 0.00 94 1015.8
20221206085349 29 285 0.0 0.0 0.00 0.00 0.00 94 1015.7
20221206084849 29 285 0.0 0.0 0.00 0.00 0.00 94 1015.7
20221206084349 29 262 0.0 0.0 0.00 0.00 0.00 94 1015.7
20221206083849 29 252 0.0 0.0 0.00 0.00 0.00 94 1015.5
20221206083349 29 245 0.0 0.0 0.00 0.00 0.00 94 1015.5
20221206082849 29 227 0.0 0.0 0.00 0.00 0.00 94 1015.6
20221206082349 29 232 0.0 0.0 0.00 0.00 0.00 94 1015.5
20221206081849 29 242 0.0 0.0 0.00 0.00 0.00 94 1015.5
20221206081348 29 227 0.0 0.0 0.00 0.00 0.00 94 1015.5
20221206080848 29 232 0.0 0.0 0.00 0.00 0.00 94 1015.5
20221206080348 29 270 0.0 0.0 0.00 0.00 0.00 94 1015.5
20221206075848 29 252 0.0 0.0 0.00 0.00 0.00 94 1015.5
20221206075348 29 227 0.0 0.0 0.00 0.00 0.00 94 1015.4
20221206074848 29 230 0.0 0.0 0.00 0.00 0.00 94 1015.4